Time,TemperatureF,DewpointF,PressureIn,WindDirection,WindDirectionDegrees,WindSpeedMPH,WindSpeedGustMPH,Humidity,HourlyPrecipIn,Conditions,Clouds,dailyrainin,SolarRadiationWatts/m^2,SoftwareType,DateUTC
2013-06-30 00:07:00,76.1,54.0,30.13,NNE,22,17.0,25.0,47,0.00,,,0.00,0,weatherlink.com 1.10,2013-06-30 06:07:00,
2013-06-30 00:22:00,72.1,55.0,30.14,North,5,15.0,20.0,56,0.00,,,0.00,0,weatherlink.com 1.10,2013-06-30 06:22:00,
2013-06-30 00:37:00,70.7,56.0,30.14,North,5,15.0,17.0,60,0.00,,,0.00,0,weatherlink.com 1.10,2013-06-30 06:37:00,
2013-06-30 00:52:00,70.7,56.0,30.14,North,360,11.0,16.0,59,0.00,,,0.00,0,weatherlink.com 1.10,2013-06-30 06:52:00,
2013-06-30 01:07:00,69.6,55.0,30.15,North,360,12.0,14.0,61,0.00,,,0.00,0,weatherlink.com 1.10,2013-06-30 07:07:00,
2013-06-30 01:22:00,69.0,56.0,30.15,NNE,21,10.0,13.0,64,0.00,,,0.00,0,weatherlink.com 1.10,2013-06-30 07:22:00,
2013-06-30 01:37:00,69.2,55.0,30.15,North,360,9.0,11.0,62,0.00,,,0.00,0,weatherlink.com 1.10,2013-06-30 07:37:00,
2013-06-30 01:52:00,68.3,56.0,30.16,NNE,14,10.0,11.0,64,0.00,,,0.00,0,weatherlink.com 1.10,2013-06-30 07:52:00,
2013-06-30 02:07:00,68.2,56.0,30.16,NE,36,7.0,10.0,65,0.00,,,0.00,0,weatherlink.com 1.10,2013-06-30 08:07:00,
2013-06-30 02:22:00,68.3,56.0,30.16,NE,40,8.0,10.0,65,0.00,,,0.00,0,weatherlink.com 1.10,2013-06-30 08:22:00,
2013-06-30 02:37:00,68.8,56.0,30.16,NE,41,6.0,9.0,64,0.00,,,0.00,0,weatherlink.com 1.10,2013-06-30 08:37:00,
2013-06-30 02:52:00,68.6,56.0,30.17,NE,45,8.0,10.0,65,0.00,,,0.00,0,weatherlink.com 1.10,2013-06-30 08:52:00,
2013-06-30 03:07:00,68.6,55.0,30.17,NE,50,7.0,11.0,63,0.00,,,0.00,0,weatherlink.com 1.10,2013-06-30 09:07:00,
2013-06-30 03:22:00,68.3,56.0,30.18,NE,36,0.0,10.0,64,0.00,,,0.00,0,weatherlink.com 1.10,2013-06-30 09:22:00,
2013-06-30 03:37:00,67.5,56.0,30.18,NE,36,0.0,0.0,67,0.00,,,0.00,0,weatherlink.com 1.10,2013-06-30 09:37:00,
2013-06-30 03:52:00,66.8,56.0,30.18,NE,36,0.0,1.0,68,0.00,,,0.00,0,weatherlink.com 1.10,2013-06-30 09:52:00,
2013-06-30 04:07:00,66.6,55.0,30.19,NE,36,0.0,1.0,67,0.00,,,0.00,0,weatherlink.com 1.10,2013-06-30 10:07:00,
2013-06-30 04:22:00,67.1,56.0,30.18,NE,38,0.0,3.0,67,0.00,,,0.00,0,weatherlink.com 1.10,2013-06-30 10:22:00,
2013-06-30 04:37:00,65.9,56.0,30.18,NNW,344,4.0,4.0,70,0.00,,,0.00,0,weatherlink.com 1.10,2013-06-30 10:37:00,
2013-06-30 04:52:00,65.4,56.0,30.19,NNW,344,0.0,1.0,71,0.00,,,0.00,0,weatherlink.com 1.10,2013-06-30 10:52:00,
2013-06-30 05:07:00,65.6,56.0,30.19,NNW,344,0.0,1.0,70,0.00,,,0.00,0,weatherlink.com 1.10,2013-06-30 11:07:00,
2013-06-30 05:22:00,65.5,55.0,30.19,NE,36,3.0,3.0,70,0.00,,,0.00,0,weatherlink.com 1.10,2013-06-30 11:22:00,
2013-06-30 05:37:00,64.8,55.0,30.20,NNE,32,4.0,4.0,71,0.00,,,0.00,0,weatherlink.com 1.10,2013-06-30 11:37:00,
2013-06-30 05:53:00,63.2,56.0,30.20,NNE,30,4.0,5.0,76,0.00,,,0.00,0,weatherlink.com 1.10,2013-06-30 11:53:00,
2013-06-30 06:08:00,63.0,55.0,30.21,NNE,26,5.0,6.0,76,0.00,,,0.00,7,weatherlink.com 1.10,2013-06-30 12:08:00,
2013-06-30 06:23:00,62.9,56.0,30.21,NNE,20,9.0,11.0,77,0.00,,,0.00,9,weatherlink.com 1.10,2013-06-30 12:23:00,
2013-06-30 06:38:00,62.7,56.0,30.21,North,9,6.0,9.0,78,0.00,,,0.00,12,weatherlink.com 1.10,2013-06-30 12:38:00,
2013-06-30 06:53:00,61.8,55.0,30.21,NNE,26,5.0,8.0,79,0.00,,,0.00,16,weatherlink.com 1.10,2013-06-30 12:53:00,
2013-06-30 07:08:00,62.5,56.0,30.22,NNE,24,5.0,9.0,79,0.00,,,0.00,37,weatherlink.com 1.10,2013-06-30 13:08:00,
2013-06-30 07:23:00,63.3,56.0,30.22,North,360,3.0,6.0,78,0.00,,,0.00,137,weatherlink.com 1.10,2013-06-30 13:23:00,
2013-06-30 07:38:00,63.7,56.0,30.23,North,355,5.0,6.0,77,0.00,,,0.00,162,weatherlink.com 1.10,2013-06-30 13:38:00,
2013-06-30 07:53:00,64.3,56.0,30.23,NE,34,3.0,4.0,75,0.00,,,0.00,188,weatherlink.com 1.10,2013-06-30 13:53:00,
2013-06-30 08:08:00,65.4,57.0,30.23,North,355,5.0,6.0,73,0.00,,,0.00,214,weatherlink.com 1.10,2013-06-30 14:08:00,
2013-06-30 08:23:00,66.2,57.0,30.23,North,360,2.0,4.0,71,0.00,,,0.00,241,weatherlink.com 1.10,2013-06-30 14:23:00,
2013-06-30 08:38:00,67.3,57.0,30.23,North,5,4.0,4.0,69,0.00,,,0.00,267,weatherlink.com 1.10,2013-06-30 14:38:00,
2013-06-30 08:53:00,68.3,57.0,30.23,NNW,337,2.0,3.0,68,0.00,,,0.00,294,weatherlink.com 1.10,2013-06-30 14:53:00,
2013-06-30 09:08:00,68.2,57.0,30.23,WNW,294,0.0,4.0,68,0.00,,,0.00,320,weatherlink.com 1.10,2013-06-30 15:08:00,
2013-06-30 09:23:00,69.1,58.0,30.23,West,275,0.0,4.0,67,0.00,,,0.00,345,weatherlink.com 1.10,2013-06-30 15:23:00,
2013-06-30 09:38:00,70.3,58.0,30.23,SSW,207,2.0,5.0,66,0.00,,,0.00,369,weatherlink.com 1.10,2013-06-30 15:38:00,
2013-06-30 09:53:00,70.8,58.0,30.22,SSW,206,0.0,5.0,65,0.00,,,0.00,397,weatherlink.com 1.10,2013-06-30 15:53:00,
2013-06-30 10:09:00,71.6,58.0,30.22,SW,224,3.0,8.0,63,0.00,,,0.00,431,weatherlink.com 1.10,2013-06-30 16:09:00,
2013-06-30 10:24:00,73.0,59.0,30.21,SW,234,5.0,6.0,61,0.00,,,0.00,455,weatherlink.com 1.10,2013-06-30 16:24:00,
2013-06-30 10:39:00,73.9,58.0,30.21,SSW,202,2.0,6.0,58,0.00,,,0.00,478,weatherlink.com 1.10,2013-06-30 16:39:00,
2013-06-30 10:54:00,75.2,57.0,30.21,WSW,256,3.0,8.0,53,0.00,,,0.00,497,weatherlink.com 1.10,2013-06-30 16:54:00,
2013-06-30 11:09:00,76.9,57.0,30.20,WSW,238,0.0,6.0,51,0.00,,,0.00,510,weatherlink.com 1.10,2013-06-30 17:09:00,
2013-06-30 11:24:00,76.9,58.0,30.20,SSW,197,0.0,6.0,53,0.00,,,0.00,526,weatherlink.com 1.10,2013-06-30 17:24:00,
2013-06-30 11:39:00,77.9,58.0,30.20,WNW,291,3.0,7.0,50,0.00,,,0.00,541,weatherlink.com 1.10,2013-06-30 17:39:00,
2013-06-30 11:54:00,79.3,61.0,30.20,WNW,298,4.0,6.0,53,0.00,,,0.00,557,weatherlink.com 1.10,2013-06-30 17:54:00,
2013-06-30 12:09:00,79.8,60.0,30.19,NNW,348,5.0,8.0,51,0.00,,,0.00,568,weatherlink.com 1.10,2013-06-30 18:09:00,
2013-06-30 12:24:00,80.9,62.0,30.18,NW,311,10.0,11.0,52,0.00,,,0.00,582,weatherlink.com 1.10,2013-06-30 18:24:00,
2013-06-30 12:39:00,80.9,60.0,30.18,North,355,10.0,14.0,50,0.00,,,0.00,589,weatherlink.com 1.10,2013-06-30 18:39:00,
2013-06-30 12:54:00,81.8,61.0,30.17,NNW,342,7.0,12.0,49,0.00,,,0.00,599,weatherlink.com 1.10,2013-06-30 18:54:00,
2013-06-30 13:09:00,82.1,60.0,30.17,North,355,8.0,15.0,48,0.00,,,0.00,605,weatherlink.com 1.10,2013-06-30 19:09:00,
2013-06-30 13:24:00,83.1,60.0,30.16,North,355,9.0,13.0,45,0.00,,,0.00,612,weatherlink.com 1.10,2013-06-30 19:24:00,
2013-06-30 13:41:00,83.7,60.0,30.16,NW,323,15.0,16.0,45,0.00,,,0.00,615,weatherlink.com 1.10,2013-06-30 19:41:00,
2013-06-30 13:54:00,84.0,58.0,30.16,NNW,345,15.0,17.0,41,0.00,,,0.00,615,weatherlink.com 1.10,2013-06-30 19:54:00,
2013-06-30 14:09:00,85.0,57.0,30.15,NNW,332,16.0,19.0,39,0.00,,,0.00,643,weatherlink.com 1.10,2013-06-30 20:09:00,
2013-06-30 14:24:00,85.3,53.0,30.15,NNW,340,17.0,18.0,33,0.00,,,0.00,612,weatherlink.com 1.10,2013-06-30 20:24:00,
2013-06-30 14:39:00,85.9,54.0,30.15,NNW,341,13.0,18.0,33,0.00,,,0.00,592,weatherlink.com 1.10,2013-06-30 20:39:00,
2013-06-30 14:54:00,86.6,55.0,30.15,NNW,342,13.0,16.0,34,0.00,,,0.00,582,weatherlink.com 1.10,2013-06-30 20:54:00,
2013-06-30 15:09:00,85.9,55.0,30.14,NNW,328,13.0,16.0,35,0.00,,,0.00,575,weatherlink.com 1.10,2013-06-30 21:09:00,
2013-06-30 15:25:00,86.6,55.0,30.14,NNW,333,12.0,18.0,34,0.00,,,0.00,330,weatherlink.com 1.10,2013-06-30 21:25:00,
2013-06-30 15:40:00,87.7,55.0,30.14,North,360,10.0,14.0,33,0.00,,,0.00,571,weatherlink.com 1.10,2013-06-30 21:40:00,
2013-06-30 15:55:00,87.6,55.0,30.14,NNW,344,9.0,13.0,33,0.00,,,0.00,457,weatherlink.com 1.10,2013-06-30 21:55:00,
2013-06-30 16:10:00,-999.0,-99.9,30.13,North,-999,-999.0,-999.0,-999,0.00,,,0.00,,weatherlink.com 1.10,2013-06-30 22:10:00,
2013-06-30 16:25:00,-999.0,-99.9,30.14,North,-999,-999.0,-999.0,-999,0.00,,,0.00,,weatherlink.com 1.10,2013-06-30 22:25:00,
2013-06-30 16:40:00,-999.0,-99.9,30.13,North,-999,-999.0,-999.0,-999,0.00,,,0.00,,weatherlink.com 1.10,2013-06-30 22:40:00,
2013-06-30 16:55:00,-999.0,-99.9,30.13,North,-999,-999.0,-999.0,-999,0.00,,,0.00,,weatherlink.com 1.10,2013-06-30 22:55:00,
2013-06-30 17:10:00,-999.0,-99.9,30.13,North,-999,-999.0,-999.0,-999,0.00,,,0.00,,weatherlink.com 1.10,2013-06-30 23:10:00,
2013-06-30 17:25:00,-999.0,-99.9,30.13,North,-999,-999.0,-999.0,-999,0.00,,,0.00,,weatherlink.com 1.10,2013-06-30 23:25:00,
2013-06-30 17:40:00,-999.0,-99.9,30.13,North,-999,-999.0,-999.0,-999,0.00,,,0.00,,weatherlink.com 1.10,2013-06-30 23:40:00,
2013-06-30 17:55:00,-999.0,-99.9,30.13,North,-999,-999.0,-999.0,-999,0.00,,,0.00,,weatherlink.com 1.10,2013-06-30 23:55:00,
2013-06-30 18:10:00,-999.0,-99.9,30.13,North,-999,-999.0,-999.0,-999,0.00,,,0.00,,weatherlink.com 1.10,2013-07-01 00:10:00,
2013-06-30 18:25:00,-999.0,-99.9,30.13,North,-999,-999.0,-999.0,-999,0.00,,,0.00,,weatherlink.com 1.10,2013-07-01 00:25:00,
2013-06-30 18:40:00,-999.0,-99.9,30.13,North,-999,-999.0,-999.0,-999,0.00,,,0.00,,weatherlink.com 1.10,2013-07-01 00:40:00,
2013-06-30 18:55:00,-999.0,-99.9,30.13,North,-999,-999.0,-999.0,-999,0.00,,,0.00,,weatherlink.com 1.10,2013-07-01 00:55:00,
2013-06-30 19:11:00,-999.0,-99.9,30.13,North,-999,-999.0,-999.0,-999,0.00,,,0.00,,weatherlink.com 1.10,2013-07-01 01:11:00,
2013-06-30 19:26:00,-999.0,-99.9,30.14,North,-999,-999.0,-999.0,-999,0.00,,,0.00,,weatherlink.com 1.10,2013-07-01 01:26:00,
2013-06-30 19:41:00,-999.0,-99.9,30.14,North,-999,-999.0,-999.0,-999,0.00,,,0.00,,weatherlink.com 1.10,2013-07-01 01:41:00,
2013-06-30 19:56:00,-999.0,-99.9,30.14,North,-999,-999.0,-999.0,-999,0.00,,,0.00,,weatherlink.com 1.10,2013-07-01 01:56:00,
2013-06-30 20:11:00,-999.0,-99.9,30.14,North,-999,-999.0,-999.0,-999,0.00,,,0.00,,weatherlink.com 1.10,2013-07-01 02:11:00,
2013-06-30 20:26:00,-999.0,-99.9,30.14,North,-999,-999.0,-999.0,-999,0.00,,,0.00,,weatherlink.com 1.10,2013-07-01 02:26:00,
2013-06-30 20:41:00,-999.0,-99.9,30.14,North,-999,-999.0,-999.0,-999,0.00,,,0.00,,weatherlink.com 1.10,2013-07-01 02:41:00,
2013-06-30 20:56:00,-999.0,-99.9,30.15,North,-999,-999.0,-999.0,-999,0.00,,,0.00,,weatherlink.com 1.10,2013-07-01 02:56:00,
2013-06-30 21:11:00,-999.0,-99.9,30.15,North,-999,-999.0,-999.0,-999,0.00,,,0.00,,weatherlink.com 1.10,2013-07-01 03:11:00,
2013-06-30 21:26:00,82.2,56.0,30.15,NNE,17,13.0,15.0,40,0.00,,,0.00,5,weatherlink.com 1.10,2013-07-01 03:26:00,
2013-06-30 21:41:00,82.1,55.0,30.16,NNE,13,13.0,17.0,39,0.00,,,0.00,0,weatherlink.com 1.10,2013-07-01 03:41:00,
2013-06-30 21:56:00,81.0,54.0,30.16,NNE,33,17.0,17.0,40,0.00,,,0.00,0,weatherlink.com 1.10,2013-07-01 03:56:00,
2013-06-30 22:11:00,80.5,54.0,30.17,NE,37,11.0,16.0,40,0.00,,,0.00,0,weatherlink.com 1.10,2013-07-01 04:11:00,
2013-06-30 22:26:00,81.2,54.0,30.18,NNE,13,19.0,22.0,39,0.00,,,0.00,0,weatherlink.com 1.10,2013-07-01 04:26:00,
2013-06-30 22:41:00,80.2,54.0,30.17,NNE,27,17.0,21.0,40,0.00,,,0.00,0,weatherlink.com 1.10,2013-07-01 04:41:00,
2013-06-30 22:56:00,78.3,55.0,30.18,North,360,8.0,18.0,44,0.00,,,0.00,0,weatherlink.com 1.10,2013-07-01 04:56:00,
2013-06-30 23:11:00,77.6,54.0,30.18,North,355,14.0,15.0,44,0.00,,,0.00,0,weatherlink.com 1.10,2013-07-01 05:11:00,
2013-06-30 23:26:00,76.0,55.0,30.18,North,360,13.0,15.0,48,0.00,,,0.00,0,weatherlink.com 1.10,2013-07-01 05:26:00,
2013-06-30 23:41:00,74.5,55.0,30.19,North,9,11.0,15.0,51,0.00,,,0.00,0,weatherlink.com 1.10,2013-07-01 05:41:00,
2013-06-30 23:56:00,74.5,55.0,30.18,North,5,12.0,14.0,51,0.00,,,0.00,0,weatherlink.com 1.10,2013-07-01 05:56:00,